�������l�o���
Date,Time,MP-1(��Sv/h),MP-2(��Sv/h),MP-3(��Sv/h),MP-4(��Sv/h),MP-5(��Sv/h),MP-6(��Sv/h),MP-7(��Sv/h),MP-8(��Sv/h),����,����(m/s),���J
2020/11/03,00:00,0.655,0.935,0.600,1.167,0.835,0.387,0.667,0.630,���k��,1.9,�L
2020/11/03,00:10,0.655,0.933,0.601,1.169,0.834,0.385,0.667,0.631,�k�k��,1.5,�L
2020/11/03,00:20,0.653,0.936,0.599,1.169,0.832,0.385,0.668,0.631,�k��,1.2,�L
2020/11/03,00:30,0.654,0.935,0.599,1.168,0.834,0.386,0.667,0.630,���k��,0.6,�L
2020/11/03,00:40,0.654,0.936,0.600,1.168,0.832,0.384,0.668,0.630,���k��,1.7,�L
2020/11/03,00:50,0.651,0.934,0.598,1.165,0.833,0.384,0.667,0.629,�k�k��,0.9,�L
2020/11/03,01:00,0.653,0.935,0.599,1.167,0.833,0.385,0.668,0.628,��,0.6,�L
2020/11/03,01:10,0.654,0.934,0.599,1.167,0.833,0.386,0.667,0.630,��,1.2,�L
2020/11/03,01:20,0.654,0.932,0.600,1.170,0.834,0.385,0.667,0.628,��,1.5,�L
2020/11/03,01:30,0.655,0.935,0.601,1.167,0.834,0.385,0.668,0.630,��,0.9,�L
2020/11/03,01:40,0.653,0.935,0.602,1.168,0.834,0.387,0.666,0.629,��쓌,1.1,�L
2020/11/03,01:50,0.656,0.933,0.603,1.167,0.833,0.390,0.667,0.630,�쓌,1.2,�L
2020/11/03,02:00,0.656,0.933,0.602,1.166,0.831,0.390,0.666,0.630,��,0.9,�L
2020/11/03,02:10,0.657,0.935,0.602,1.166,0.832,0.389,0.668,0.630,��쓌,3.7,�L
2020/11/03,02:20,0.656,0.934,0.603,1.165,0.830,0.389,0.666,0.629,��쓌,4.1,�L
2020/11/03,02:30,0.657,0.933,0.604,1.163,0.830,0.389,0.665,0.627,��,3.0,�L
2020/11/03,02:40,0.656,0.932,0.601,1.164,0.829,0.388,0.665,0.628,��쓌,4.1,�L
2020/11/03,02:50,0.657,0.934,0.603,1.163,0.831,0.387,0.665,0.626,��,4.6,�L
2020/11/03,03:00,0.655,0.931,0.601,1.161,0.830,0.388,0.665,0.627,��,4.2,�L
2020/11/03,03:10,0.656,0.931,0.602,1.159,0.828,0.387,0.665,0.627,��쐼,3.8,�L
2020/11/03,03:20,0.656,0.931,0.601,1.160,0.828,0.387,0.665,0.626,��쓌,3.4,�L
2020/11/03,03:30,0.656,0.929,0.599,1.157,0.827,0.386,0.664,0.627,��,3.2,�L
2020/11/03,03:40,0.653,0.928,0.600,1.159,0.827,0.386,0.665,0.627,�쐼,1.2,�L
2020/11/03,03:50,0.654,0.930,0.600,1.155,0.828,0.387,0.663,0.626,���쓌,0.9,�L
2020/11/03,04:00,0.653,0.927,0.598,1.157,0.827,0.386,0.662,0.627,���쓌,1.9,��
2020/11/03,04:10,0.652,0.926,0.596,1.153,0.826,0.385,0.663,0.626,�k�k��,1.7,��
2020/11/03,04:20,0.651,0.927,0.596,1.153,0.825,0.384,0.664,0.626,�k,1.5,��
2020/11/03,04:30,0.651,0.928,0.594,1.153,0.824,0.384,0.663,0.625,�k�k��,1.5,��
2020/11/03,04:40,0.650,0.924,0.595,1.152,0.825,0.384,0.665,0.627,�k�k��,2.3,��
2020/11/03,04:50,0.649,0.927,0.595,1.154,0.823,0.383,0.662,0.626,�k��,3.8,��
2020/11/03,05:00,0.648,0.924,0.594,1.149,0.822,0.383,0.663,0.626,�k��,6.0,��
2020/11/03,05:10,0.648,0.924,0.594,1.151,0.822,0.381,0.664,0.627,�k�k��,4.1,��
2020/11/03,05:20,0.649,0.925,0.595,1.152,0.823,0.381,0.661,0.627,�k�k��,3.6,��
2020/11/03,05:30,0.648,0.926,0.594,1.152,0.823,0.382,0.663,0.628,�k�k��,4.1,�L
2020/11/03,05:40,0.647,0.925,0.595,1.149,0.821,0.382,0.664,0.627,�k�k��,4.0,�L
2020/11/03,05:50,0.647,0.925,0.594,1.151,0.823,0.381,0.663,0.626,�k��,4.5,��
2020/11/03,06:00,0.647,0.924,0.593,1.150,0.823,0.382,0.663,0.627,���k��,6.6,��
2020/11/03,06:10,0.647,0.926,0.594,1.151,0.824,0.381,0.662,0.628,���k��,5.2,��
2020/11/03,06:20,0.646,0.926,0.592,1.150,0.823,0.381,0.664,0.626,�k��,4.2,��
2020/11/03,06:30,0.646,0.923,0.596,1.150,0.823,0.380,0.665,0.626,�k��,3.4,��
2020/11/03,06:40,0.647,0.924,0.591,1.150,0.825,0.381,0.663,0.627,�k,4.8,��
2020/11/03,06:50,0.646,0.926,0.592,1.150,0.821,0.381,0.665,0.626,�k,5.5,��
2020/11/03,07:00,0.645,0.926,0.593,1.154,0.823,0.379,0.664,0.626,�k,5.5,��
2020/11/03,07:10,0.649,0.924,0.594,1.153,0.823,0.381,0.664,0.627,�k,5.5,��
2020/11/03,07:20,0.646,0.925,0.592,1.150,0.822,0.382,0.663,0.627,�k,5.2,��
2020/11/03,07:30,0.646,0.926,0.595,1.153,0.822,0.380,0.664,0.627,�k,4.9,��
2020/11/03,07:40,0.647,0.925,0.595,1.153,0.823,0.382,0.666,0.626,�k,4.7,��
2020/11/03,07:50,0.648,0.926,0.595,1.153,0.824,0.381,0.663,0.627,�k,4.7,��
2020/11/03,08:00,0.649,0.925,0.595,1.151,0.825,0.380,0.666,0.626,�k�k��,3.3,��
2020/11/03,08:10,0.648,0.929,0.593,1.153,0.823,0.382,0.664,0.628,�k,2.3,��
2020/11/03,08:20,0.647,0.926,0.596,1.153,0.825,0.381,0.664,0.626,�k�k��,2.6,��
2020/11/03,08:30,0.650,0.925,0.593,1.154,0.825,0.380,0.664,0.627,�k�k��,1.9,��
2020/11/03,08:40,0.648,0.924,0.595,1.152,0.826,0.383,0.664,0.628,�k,1.7,��
2020/11/03,08:50,0.648,0.925,0.596,1.157,0.827,0.381,0.665,0.626,�k,1.7,��
2020/11/03,09:00,0.648,0.924,0.594,1.155,0.826,0.381,0.665,0.626,�k��,1.7,��
2020/11/03,09:10,0.647,0.923,0.597,1.154,0.826,0.381,0.667,0.627,�k,2.6,��
2020/11/03,09:20,0.649,0.924,0.596,1.156,0.825,0.380,0.665,0.625,�k,2.9,��
2020/11/03,09:30,0.650,0.924,0.596,1.155,0.828,0.382,0.667,0.625,�k�k��,2.3,��
2020/11/03,09:40,0.649,0.926,0.596,1.158,0.829,0.381,0.665,0.626,�k�k��,3.3,��
2020/11/03,09:50,0.650,0.926,0.596,1.155,0.828,0.380,0.667,0.626,���k��,3.3,��
2020/11/03,10:00,0.649,0.925,0.596,1.156,0.829,0.381,0.666,0.626,���k��,1.7,��
2020/11/03,10:10,0.649,0.926,0.598,1.155,0.827,0.380,0.667,0.626,�k��,2.3,��
2020/11/03,10:20,0.649,0.925,0.597,1.157,0.828,0.380,0.666,0.628,�k��,3.2,��
2020/11/03,10:30,0.649,0.925,0.596,1.155,0.829,0.382,0.667,0.626,���k��,2.3,��
2020/11/03,10:40,0.650,0.925,0.598,1.156,0.828,0.381,0.668,0.627,���k��,2.0,��
2020/11/03,10:50,0.648,0.929,0.599,1.158,0.830,0.381,0.666,0.626,��,0.6,��
2020/11/03,11:00,0.650,0.929,0.597,1.156,0.830,0.381,0.666,0.626,��,1.2,��
2020/11/03,11:10,0.650,0.929,0.598,1.156,0.831,0.382,0.668,0.625,��,1.2,��
2020/11/03,11:20,0.651,0.928,0.597,1.156,0.830,0.383,0.665,0.626,���k��,1.9,��
2020/11/03,11:30,0.651,0.927,0.596,1.157,0.829,0.383,0.666,0.626,���k��,1.2,��
2020/11/03,11:40,0.649,0.930,0.597,1.156,0.832,0.381,0.667,0.628,-,CALM,��
2020/11/03,11:50,0.651,0.933,0.599,1.157,0.830,0.380,0.665,0.625,���쓌,0.9,��
2020/11/03,12:00,0.652,0.933,0.597,1.157,0.831,0.382,0.668,0.626,���쓌,1.5,��
2020/11/03,12:10,0.654,0.932,0.597,1.159,0.830,0.381,0.665,0.628,��쓌,0.9,��
2020/11/03,12:20,0.653,0.934,0.596,1.160,0.830,0.381,0.665,0.625,���쐼,1.2,��
2020/11/03,12:30,0.653,0.934,0.598,1.157,0.834,0.382,0.666,0.626,���k��,2.2,��
2020/11/03,12:40,0.653,0.935,0.597,1.157,0.832,0.381,0.666,0.628,���쓌,1.2,��
2020/11/03,12:50,0.653,0.935,0.598,1.158,0.829,0.383,0.668,0.629,���쓌,2.9,��
2020/11/03,13:00,0.653,0.934,0.600,1.159,0.830,0.381,0.667,0.628,���쓌,3.0,��
2020/11/03,13:10,0.652,0.935,0.600,1.160,0.831,0.381,0.666,0.628,���쓌,2.0,��
2020/11/03,13:20,0.653,0.932,0.598,1.159,0.829,0.382,0.668,0.627,���쓌,1.9,��
2020/11/03,13:30,0.654,0.933,0.599,1.159,0.829,0.382,0.668,0.627,��,1.1,��
2020/11/03,13:40,0.654,0.933,0.595,1.161,0.828,0.382,0.666,0.628,��,1.4,��
2020/11/03,13:50,0.655,0.935,0.597,1.157,0.829,0.382,0.667,0.625,���k��,2.0,��
2020/11/03,14:00,0.655,0.935,0.596,1.161,0.830,0.381,0.667,0.626,�k��,2.5,��
2020/11/03,14:10,0.654,0.938,0.598,1.158,0.830,0.382,0.666,0.627,�k��,3.9,��
2020/11/03,14:20,0.655,0.936,0.597,1.158,0.830,0.381,0.667,0.626,�k��,4.0,��
2020/11/03,14:30,0.653,0.938,0.598,1.162,0.832,0.382,0.667,0.629,�k��,4.5,��
2020/11/03,14:40,0.652,0.936,0.599,1.159,0.831,0.382,0.666,0.628,�k��,4.9,��
2020/11/03,14:50,0.655,0.936,0.597,1.160,0.833,0.382,0.666,0.628,�k�k��,6.6,��
2020/11/03,15:00,0.656,0.938,0.599,1.160,0.831,0.382,0.666,0.628,�k�k��,7.0,��
2020/11/03,15:10,0.653,0.941,0.597,1.161,0.832,0.382,0.667,0.629,�k�k��,7.1,��
2020/11/03,15:20,0.653,0.937,0.599,1.158,0.830,0.382,0.668,0.628,�k��,6.5,��
2020/11/03,15:30,0.654,0.940,0.597,1.162,0.831,0.385,0.668,0.628,�k�k��,6.2,��
2020/11/03,15:40,0.654,0.939,0.598,1.160,0.831,0.383,0.669,0.628,�k��,5.7,��
2020/11/03,15:50,0.652,0.941,0.598,1.160,0.830,0.381,0.667,0.628,�k�k��,4.0,��
2020/11/03,16:00,0.653,0.940,0.598,1.161,0.830,0.383,0.667,0.629,�k��,3.9,��
2020/11/03,16:10,0.655,0.939,0.598,1.160,0.830,0.382,0.668,0.629,�k�k��,3.8,��
2020/11/03,16:20,0.655,0.939,0.598,1.161,0.833,0.384,0.666,0.630,�k��,4.3,��
2020/11/03,16:30,0.655,0.938,0.598,1.162,0.832,0.383,0.667,0.629,�k��,3.4,��
2020/11/03,16:40,0.655,0.941,0.598,1.159,0.832,0.383,0.668,0.629,�k�k��,3.1,��
2020/11/03,16:50,0.655,0.940,0.598,1.160,0.833,0.385,0.668,0.630,�k�k��,2.2,��
2020/11/03,17:00,0.657,0.938,0.599,1.161,0.833,0.383,0.667,0.630,�k��,1.5,��
2020/11/03,17:10,0.654,0.939,0.599,1.161,0.833,0.383,0.671,0.630,�k��,1.7,��
2020/11/03,17:20,0.656,0.941,0.598,1.163,0.833,0.382,0.668,0.630,�k��,1.2,��
2020/11/03,17:30,0.655,0.940,0.598,1.160,0.833,0.383,0.669,0.630,�k,0.9,��
2020/11/03,17:40,0.655,0.939,0.597,1.159,0.832,0.384,0.669,0.629,���k��,1.1,��
2020/11/03,17:50,0.655,0.942,0.599,1.162,0.833,0.384,0.669,0.629,-,CALM,��
2020/11/03,18:00,0.654,0.938,0.598,1.161,0.832,0.384,0.669,0.630,�쐼,0.6,��
2020/11/03,18:10,0.657,0.939,0.597,1.161,0.833,0.383,0.669,0.630,��쐼,0.9,��
2020/11/03,18:20,0.655,0.937,0.597,1.161,0.834,0.385,0.669,0.629,��쐼,1.4,��
2020/11/03,18:30,0.657,0.938,0.597,1.160,0.834,0.383,0.668,0.630,��쐼,1.2,��
2020/11/03,18:40,0.654,0.939,0.598,1.160,0.833,0.383,0.670,0.628,�쐼,1.4,��
2020/11/03,18:50,0.657,0.938,0.597,1.160,0.833,0.384,0.669,0.630,��쐼,2.0,��
2020/11/03,19:00,0.656,0.939,0.597,1.160,0.833,0.383,0.670,0.629,��쐼,2.3,��
2020/11/03,19:10,0.657,0.940,0.599,1.161,0.834,0.384,0.669,0.629,�쐼,3.0,��
2020/11/03,19:20,0.654,0.938,0.597,1.162,0.833,0.385,0.669,0.629,�쐼,2.8,��
2020/11/03,19:30,0.656,0.939,0.600,1.164,0.833,0.384,0.668,0.630,�쐼,3.1,��
2020/11/03,19:40,0.655,0.940,0.599,1.162,0.832,0.384,0.670,0.629,�쐼,3.0,��
2020/11/03,19:50,0.656,0.938,0.599,1.159,0.834,0.382,0.671,0.630,���쐼,4.4,��
2020/11/03,20:00,0.656,0.939,0.598,1.159,0.834,0.383,0.670,0.629,���쐼,4.0,��
2020/11/03,20:10,0.655,0.940,0.598,1.165,0.835,0.385,0.670,0.629,��,3.7,��
2020/11/03,20:20,0.655,0.940,0.599,1.162,0.833,0.384,0.670,0.629,�쐼,3.6,��
2020/11/03,20:30,0.655,0.941,0.598,1.161,0.835,0.384,0.670,0.630,�쐼,3.0,��
2020/11/03,20:40,0.654,0.941,0.598,1.160,0.834,0.382,0.669,0.630,���쐼,2.9,��
2020/11/03,20:50,0.656,0.939,0.599,1.163,0.836,0.384,0.668,0.631,��,2.2,��
2020/11/03,21:00,0.656,0.939,0.599,1.163,0.831,0.384,0.669,0.630,���k��,3.5,��
2020/11/03,21:10,0.654,0.938,0.597,1.161,0.834,0.384,0.669,0.629,���k��,4.1,��
2020/11/03,21:20,0.656,0.939,0.600,1.163,0.836,0.384,0.669,0.629,�k�k��,3.2,��
2020/11/03,21:30,0.655,0.940,0.599,1.162,0.832,0.382,0.668,0.632,�k�k��,0.9,��
2020/11/03,21:40,0.655,0.939,0.597,1.162,0.832,0.384,0.667,0.630,�k��,3.7,��
2020/11/03,21:50,0.655,0.939,0.599,1.162,0.832,0.382,0.669,0.630,���k��,5.3,��
2020/11/03,22:00,0.655,0.940,0.596,1.162,0.835,0.384,0.669,0.628,���k��,6.6,��
2020/11/03,22:10,0.655,0.939,0.598,1.160,0.835,0.384,0.668,0.631,���k��,7.3,��
2020/11/03,22:20,0.654,0.939,0.600,1.163,0.834,0.385,0.669,0.632,��,5.8,��
2020/11/03,22:30,0.655,0.939,0.598,1.165,0.834,0.382,0.668,0.629,���k��,6.5,��
2020/11/03,22:40,0.654,0.940,0.599,1.164,0.834,0.382,0.669,0.631,��,7.8,��
2020/11/03,22:50,0.654,0.940,0.599,1.165,0.835,0.383,0.669,0.630,���k��,8.1,��
2020/11/03,23:00,0.655,0.941,0.600,1.166,0.835,0.383,0.668,0.629,���k��,3.8,��
2020/11/03,23:10,0.656,0.940,0.598,1.163,0.834,0.382,0.669,0.630,�k�k��,3.2,��
2020/11/03,23:20,0.656,0.941,0.599,1.165,0.833,0.383,0.669,0.631,�k��,5.0,��
2020/11/03,23:30,0.654,0.938,0.597,1.164,0.835,0.382,0.668,0.631,�k��,5.5,��
2020/11/03,23:40,0.655,0.941,0.599,1.165,0.835,0.384,0.670,0.631,�k��,4.1,��
2020/11/03,23:50,0.655,0.939,0.600,1.164,0.833,0.384,0.670,0.629,�k��,8.5,��
